Location: La Brionne
(46.1728°N, 1.7849°E)
Time: 07:54:30
(UTC+00:00)

Terra - Pass Details

Date: 16 June 2021
Orbit: 701 x 703 km, 98.2° (Epoch: 02 August)

Event Time Altitude Azimuth Distance (km) Brightness Sun altitude
Exits shadow 21:05:52 14° 134° (SE) 1,886 3.4 -10.7°
Maximum altitude 21:09:33 41° 69° (ENE) 1,016 2.5 -11.1°
Drops below altitude 10° 21:14:02 10° 360° (N) 2,182 5.2 -11.6°
Sets 21:16:23 0° 353° (N) 3,105 6.3 -11.9°
